Tracking 35275 objects as of 7-Sep-2026
HD Live streaming from Space Station
objects crossing your sky now

SL-3 DEB


SL-3 DEB is no longer on orbit


NORAD ID: 1384
Int'l Code: 1965-040C
Launch date: May 25, 1965
Source: Commonwealth of Independent States (former USSR) (CIS)
Launch site: TYURATAM MISSILE AND SPACE COMPLEX (TTMTR)
Decay date: 1965-05-31

Note: This is SATELLITE DEBRIS
Your satellite tracking list
Your tracking list is empty




NASA's NSSDC Master Catalog

Two Line Element Set (TLE):
1 01384U 65040  C 65145.75639077  .00087613 +17311-4 +00000-0 0  9998
2 01384 051.8646 054.6910 0127353 045.6938 315.3855 15.97271307000056
Source of the keplerian elements: AFSPC